Tracking 35280 objects as of 7-Sep-2026
HD Live streaming from Space Station
objects crossing your sky now

STARLINK-5543

Track STARLINK-5543 now!
10-day predictions
STARLINK-5543 is classified as:


NORAD ID: 56341
Int'l Code: 2023-058AA
Launch date: April 27, 2023
Source: United States (US)
Launch site: AIR FORCE WESTERN TEST RANGE (AFWTR)
Your satellite tracking list
Your tracking list is empty




NASA's NSSDC Master Catalog

Two Line Element Set (TLE):
1 56341U 23058AA  26249.98846550  .00022926  00000-0  15796-2 0  9996
2 56341  97.2868 244.5250 0006520 128.2667 231.9148 15.05828340185398
Source of the keplerian elements: AFSPC